Weather History for KCFE - June, 2013

Change the Weather History Date:

Monday, June 17, 2013

  Actual Average (KSTC) Record (KSTC)
Temperature  
Mean Temperature 68 °F 66 °F  
Max Temperature 79 °F 78 °F 97 °F (1995)
Min Temperature 59 °F 54 °F 38 °F (2000)
Degree Days  
Heating Degree Days 0 2  
Month to date heating degree days 60  
Since 1 June heating degree days 60  
Since 1 July heating degree days 8514  
Cooling Degree Days 4 3  
Month to date cooling degree days 38  
Year to date cooling degree days 63  
Since 1 June cooling degree days 38  
Growing Degree Days 18 (Base 50)    
Moisture  
Dew Point 54 °F    
Average Humidity 61    
Maximum Humidity 85    
Minimum Humidity 38    
Precipitation  
Precipitation 0.00 in 0.15 in 2.84 in (1954)
Month to date precipitation 2.33  
Year to date precipitation 10.64  
Snow  
Snow 0.00 in 0.00 in T in (2011)
Month to date snowfall 0.0  
Since 1 June snowfall 0.0  
Since 1 July snowfall 45.7  
Snow Depth -    
Sea Level Pressure  
Sea Level Pressure 29.95 in    
Wind  
Wind Speed 5 mph (NW)    
Max Wind Speed 15 mph    
Max Gust Speed 20 mph    
Visibility 10 miles    
Events      
T = Trace of Precipitation, MM = Missing Value Source: NWS Daily Summary

Daily Weather History Graph

Daily Weather History Graph

Search for Another Location

Airport or City:

Trip Planner

Search our weather history database for the weather conditions in past years. The results will help you decide how hot, cold, wet, or windy it might be!

Date:

Astronomy

Jun. 17, 2013 Rise Set
Actual Time 5:27 AM CDT 9:05 PM CDT
Civil Twilight 4:49 AM CDT 9:43 PM CDT
Nautical Twilight 3:59 AM CDT 10:33 PM CDT
Astronomical Twilight 2:53 AM CDT 11:40 PM CDT
Moon 2:31 PM CDT (6/17) 1:19 AM CDT (6/17)
Length of Visible Light 16h 53m
Length of Day
15h 37m
First Quarter, 60% of the Moon is Illuminated
Jun 17
First Quarter
Jun 23
Full
Jun 29
Last Quarter
Jul 8
New
Jul 15
First Quarter

Hourly Weather History & Observations

Time (CDT) Temp. Dew Point Humidity Pressure Visibility Wind Dir Wind Speed Gust Speed Precip Events Conditions
12:15 AM 63.7 °F 57.0 °F 79% 29.89 in 10.0 mi Calm Calm - N/A   Mostly Cloudy
12:34 AM 63.3 °F 56.8 °F 79% 29.89 in 10.0 mi West 3.5 mph - N/A   Scattered Clouds
12:54 AM 62.6 °F 56.5 °F 80% 29.89 in 10.0 mi WSW 3.5 mph - N/A   Clear
1:15 AM 63.5 °F 56.7 °F 78% 29.89 in 10.0 mi WSW 3.5 mph - N/A   Scattered Clouds
1:34 AM 63.5 °F 56.5 °F 78% 29.89 in 10.0 mi Calm Calm - N/A   Mostly Cloudy
1:54 AM 63.7 °F 56.3 °F 77% 29.89 in 10.0 mi Calm Calm - N/A   Mostly Cloudy
2:15 AM 63.7 °F 56.8 °F 78% 29.89 in 10.0 mi West 3.5 mph - N/A   Mostly Cloudy
2:34 AM 62.6 °F 56.5 °F 80% 29.89 in 10.0 mi Calm Calm - N/A   Scattered Clouds
2:54 AM 62.2 °F 56.3 °F 81% 29.89 in 10.0 mi Calm Calm - N/A   Clear
3:15 AM 62.1 °F 56.3 °F 81% 29.90 in 10.0 mi Calm Calm - N/A   Clear
3:34 AM 61.2 °F 55.6 °F 82% 29.90 in 10.0 mi Calm Calm - N/A   Scattered Clouds
3:54 AM 62.1 °F 55.8 °F 80% 29.91 in 10.0 mi Calm Calm - N/A   Scattered Clouds
4:15 AM 60.8 °F 55.0 °F 81% 29.90 in 10.0 mi Calm Calm - N/A   Scattered Clouds
4:34 AM 60.3 °F 54.7 °F 82% 29.91 in 10.0 mi Calm Calm - N/A   Scattered Clouds
4:54 AM 59.5 °F 54.5 °F 83% 29.91 in 10.0 mi Calm Calm - N/A   Clear
5:15 AM 59.5 °F 54.5 °F 83% 29.91 in 10.0 mi Calm Calm - N/A   Clear
5:34 AM 59.0 °F 54.1 °F 84% 29.91 in 10.0 mi Calm Calm - N/A   Clear
5:54 AM 59.0 °F 54.5 °F 85% 29.91 in 10.0 mi Calm Calm - N/A   Clear
6:15 AM 60.3 °F 54.7 °F 82% 29.91 in 10.0 mi Calm Calm - N/A   Clear
6:34 AM 62.1 °F 55.4 °F 79% 29.92 in 10.0 mi WSW 3.5 mph - N/A   Clear
6:54 AM 63.5 °F 55.9 °F 76% 29.93 in 10.0 mi West 3.5 mph - N/A   Clear
7:15 AM 64.6 °F 55.0 °F 71% 29.93 in 10.0 mi West 6.9 mph - N/A   Clear
7:34 AM 65.5 °F 55.4 °F 70% 29.94 in 10.0 mi WSW 5.8 mph - N/A   Clear
7:54 AM 66.7 °F 55.8 °F 68% 29.94 in 10.0 mi WSW 4.6 mph - N/A   Clear
8:15 AM 69.1 °F 55.9 °F 63% 29.95 in 10.0 mi West 5.8 mph - N/A   Clear
8:34 AM 70.3 °F 55.6 °F 59% 29.95 in 10.0 mi West 6.9 mph - N/A   Clear
8:54 AM 71.2 °F 55.4 °F 57% 29.95 in 10.0 mi West 6.9 mph - N/A   Clear
9:15 AM 72.5 °F 54.3 °F 53% 29.95 in 10.0 mi West 8.1 mph - N/A   Clear
9:34 AM 72.5 °F 53.4 °F 51% 29.95 in 10.0 mi West 9.2 mph - N/A   Clear
9:54 AM 73.4 °F 53.6 °F 50% 29.95 in 10.0 mi WNW 6.9 mph - N/A   Clear
10:14 AM 74.3 °F 53.2 °F 48% 29.94 in 10.0 mi West 10.4 mph 16.1 mph N/A   Clear
10:34 AM 74.3 °F 52.2 °F 46% 29.94 in 10.0 mi West 10.4 mph 16.1 mph N/A   Clear
10:54 AM 76.1 °F 52.0 °F 43% 29.94 in 10.0 mi WNW 11.5 mph 17.3 mph N/A   Clear
11:14 AM 76.1 °F 51.8 °F 43% 29.95 in 10.0 mi West 8.1 mph 18.4 mph N/A   Clear
11:34 AM 76.5 °F 51.6 °F 42% 29.95 in 10.0 mi WNW 8.1 mph - N/A   Scattered Clouds
11:54 AM 76.1 °F 52.2 °F 43% 29.96 in 10.0 mi WNW 10.4 mph - N/A   Scattered Clouds
12:14 PM 76.3 °F 51.3 °F 41% 29.96 in 10.0 mi WSW 9.2 mph - N/A   Scattered Clouds
12:34 PM 74.8 °F 51.1 °F 43% 29.96 in 10.0 mi WNW 5.8 mph - N/A   Mostly Cloudy
12:54 PM 75.6 °F 53.4 °F 46% 29.96 in 10.0 mi SW 5.8 mph - N/A   Mostly Cloudy
1:14 PM 77.9 °F 52.3 °F 41% 29.96 in 10.0 mi WSW 6.9 mph - N/A   Mostly Cloudy
1:34 PM 78.1 °F 52.0 °F 40% 29.96 in 10.0 mi West 9.2 mph - N/A   Mostly Cloudy
1:55 PM 78.4 °F 52.9 °F 41% 29.96 in 10.0 mi WSW 6.9 mph - N/A   Mostly Cloudy
2:14 PM 78.4 °F 52.0 °F 40% 29.95 in 10.0 mi WSW 8.1 mph - N/A   Overcast
2:34 PM 77.4 °F 50.2 °F 38% 29.95 in 10.0 mi West 10.4 mph 17.3 mph N/A   Overcast
2:55 PM 77.4 °F 52.3 °F 42% 29.95 in 10.0 mi West 10.4 mph - N/A   Overcast
3:14 PM 76.3 °F 53.4 °F 45% 29.95 in 10.0 mi West 8.1 mph - N/A   Mostly Cloudy
3:34 PM 78.3 °F 52.2 °F 40% 29.95 in 10.0 mi WNW 9.2 mph - N/A   Scattered Clouds
3:55 PM 77.4 °F 52.0 °F 41% 29.95 in 10.0 mi WNW 9.2 mph - N/A   Clear
4:14 PM 76.3 °F 53.1 °F 44% 29.94 in 10.0 mi West 6.9 mph - N/A   Clear
4:34 PM 78.8 °F 52.5 °F 40% 29.95 in 10.0 mi West 8.1 mph - N/A   Scattered Clouds
4:55 PM 74.3 °F 57.2 °F 55% 29.96 in 10.0 mi NNE 15.0 mph 19.6 mph N/A   Mostly Cloudy
5:14 PM 74.1 °F 57.2 °F 55% 29.96 in 10.0 mi NNE 13.8 mph 18.4 mph N/A   Mostly Cloudy
5:34 PM 74.8 °F 55.8 °F 51% 29.95 in 10.0 mi ENE 11.5 mph - N/A   Scattered Clouds
5:55 PM 75.7 °F 56.5 °F 51% 29.95 in 10.0 mi NNE 8.1 mph - N/A   Clear
6:14 PM 76.1 °F 57.0 °F 51% 29.95 in 10.0 mi NE 8.1 mph - N/A   Clear
6:34 PM 76.1 °F 56.3 °F 50% 29.95 in 10.0 mi NNE 8.1 mph - N/A   Clear
6:55 PM 76.1 °F 56.5 °F 50% 29.95 in 10.0 mi NNE 8.1 mph - N/A   Clear
7:14 PM 74.8 °F 54.9 °F 50% 29.95 in 10.0 mi NNE 9.2 mph - N/A   Clear
7:33 PM 74.3 °F 55.6 °F 52% 29.96 in 10.0 mi NNE 8.1 mph - N/A   Clear
7:54 PM 73.4 °F 55.4 °F 53% 29.96 in 10.0 mi NE 5.8 mph - N/A   Clear
8:14 PM 72.5 °F 55.9 °F 56% 29.96 in 10.0 mi NNE 6.9 mph - N/A   Clear
8:34 PM 70.7 °F 55.9 °F 59% 29.96 in 10.0 mi NE 4.6 mph - N/A   Clear
8:54 PM 70.0 °F 56.1 °F 61% 29.97 in 10.0 mi NNE 8.1 mph - N/A   Clear
9:14 PM 69.3 °F 55.6 °F 62% 29.98 in 10.0 mi NE 11.5 mph 17.3 mph N/A   Clear
9:34 PM 68.0 °F 55.2 °F 64% 29.99 in 10.0 mi NNE 9.2 mph - N/A   Clear
9:54 PM 66.6 °F 54.1 °F 64% 30.00 in 10.0 mi NE 10.4 mph 18.4 mph N/A   Clear
10:14 PM 65.5 °F 54.1 °F 67% 30.01 in 10.0 mi NNE 11.5 mph - N/A   Scattered Clouds
10:34 PM 63.7 °F 51.8 °F 65% 30.02 in 10.0 mi NNE 11.5 mph 18.4 mph N/A   Scattered Clouds
10:54 PM 62.4 °F 51.8 °F 68% 30.03 in 10.0 mi NE 5.8 mph - N/A   Scattered Clouds
11:14 PM 62.1 °F 51.3 °F 68% 30.04 in 10.0 mi NNE 8.1 mph - N/A   Mostly Cloudy
11:34 PM 60.4 °F 49.3 °F 67% 30.05 in 10.0 mi NE 10.4 mph - N/A   Mostly Cloudy
11:55 PM 60.3 °F 49.8 °F 68% 30.05 in 10.0 mi NNE 10.4 mph - N/A   Overcast